1507086000.01,40170,13.5,73684.3,-4.15,-4.99,-4.99,0,*52
1507086001.26,40171,13.5,73674.0,-4.13,-4.93,-4.89,0,*5E
1507086002.53,40172,13.5,73678.3,-4.15,-4.93,-4.93,0,*50
1507086003.81,40173,13.5,73680.0,-4.15,-4.89,-4.93,0,*5A
1507086005.07,40174,13.5,73670.8,-4.13,-4.89,-4.85,0,*5C
1507086006.34,40175,13.5,73668.0,-4.15,-4.93,-4.93,0,*57
1507086007.61,40176,13.5,73672.0,-4.15,-4.89,-4.93,0,*5F
1507086008.87,40177,13.5,73676.3,-4.13,-4.89,-4.89,0,*53
1507086010.12,40178,13.5,73674.3,-4.13,-4.93,-4.89,0,*57
1507086011.38,40179,13.5,73688.3,-4.13,-4.93,-5.03,0,*55
1507086012.63,40180,13.5,73672.5,-4.15,-4.99,-5.07,0,*5B
1507086013.92,40181,13.5,73692.8,-4.15,-5.07,-5.07,0,*5C
1507086015.21,40182,13.5,73692.0,-4.15,-5.07,-5.19,0,*50
1507086016.47,40183,13.5,73704.8,-4.13,-5.07,-5.15,0,*5B
1507086017.75,40184,13.5,73702.5,-4.15,-5.11,-5.19,0,*51
1507086019.03,40185,13.5,73708.8,-4.15,-5.11,-5.11,0,*58
1507086020.3,40186,13.5,73722.5,-4.13,-5.07,-5.07,0,*5D
1507086021.58,40187,13.5,73700.5,-4.15,-5.11,-5.19,0,*52
1507086022.86,40188,13.5,73674.0,-4.15,-5.11,-5.19,0,*5D
1507086024.13,40189,13.5,73674.3,-4.15,-5.11,-5.11,0,*54
1507086025.42,40190,13.5,73660.3,-4.15,-5.19,-5.19,0,*5C
1507086026.67,40191,13.5,73654.5,-4.17,-5.11,-5.11,0,*5F
1507086027.93,40192,13.5,73700.0,-4.17,-5.11,-5.11,0,*5C
1507086029.18,40193,13.5,73704.8,-4.15,-4.99,-5.07,0,*59
1507086030.47,40194,13.5,73688.5,-4.15,-5.07,-5.07,0,*58
1507086031.76,40195,13.5,73692.5,-4.15,-5.19,-5.19,0,*59
1507086033.04,40196,13.5,73700.3,-4.15,-5.11,-5.19,0,*52
1507086034.3,40197,13.5,73712.3,-4.13,-5.15,-5.15,0,*5D
1507086035.55,40198,13.5,73728.5,-4.17,-5.11,-5.19,0,*5E
1507086036.83,40199,13.5,73656.0,-4.15,-5.11,-5.19,0,*5D
1507086038.11,40200,13.5,73630.3,-4.15,-5.11,-5.11,0,*56
1507086039.37,40201,13.5,73678.0,-4.17,-5.11,-5.11,0,*55
1507086040.6,40202,13.5,73660.3,-4.17,-4.99,-5.07,0,*50
1507086041.83,40203,13.5,73684.8,-4.17,-4.99,-5.07,0,*51
1507086043.06,40204,13.5,73694.0,-4.17,-5.07,-4.99,0,*56
1507086044.35,40205,13.5,73682.0,-4.15,-5.07,-5.07,0,*53
1507086045.64,40206,13.5,73682.8,-4.15,-5.07,-5.07,0,*50
1507086046.86,40207,13.5,73684.0,-4.15,-4.99,-4.99,0,*51
1507086048.1,40208,13.5,73700.3,-4.17,-4.99,-5.07,0,*5A
1507086049.29,40209,13.5,73702.0,-4.17,-4.99,-4.99,0,*5D
1507086050.49,40210,13.5,73694.8,-4.17,-4.99,-4.99,0,*55
1507086051.72,40211,13.5,73688.3,-4.17,-5.03,-4.99,0,*56
1507086052.95,40212,13.5,73658.3,-4.17,-4.99,-4.89,0,*56
1507086054.2,40213,13.5,73666.5,-4.15,-4.99,-4.93,0,*5E
1507086055.45,40214,13.5,73678.3,-4.17,-4.93,-4.93,0,*51
1507086056.7,40215,13.5,73682.3,-4.17,-4.93,-4.89,0,*5B
1507086057.97,40216,13.5,73696.8,-4.15,-4.93,-4.93,0,*51
1507086059.19,40217,13.5,73682.0,-4.17,-4.93,-4.99,0,*58
1507086060.45,40218,13.5,73688.0,-4.17,-5.07,-5.07,0,*5D
1507086061.74,40219,13.5,73692.0,-4.15,-5.07,-5.11,0,*59
1507086063.02,40220,13.5,73692.5,-4.15,-5.07,-5.11,0,*53
1507086064.31,40221,13.5,73698.8,-4.15,-5.07,-5.11,0,*52
1507086065.59,40222,13.5,73692.0,-4.15,-5.03,-4.93,0,*5E
1507086066.85,40223,13.5,73692.8,-4.15,-5.07,-4.99,0,*51
1507086068.1,40224,13.5,73702.8,-4.15,-5.07,-4.99,0,*56
1507086069.3,40225,13.5,73710.3,-4.17,-4.99,-4.99,0,*53
1507086070.5,40226,13.5,73700.5,-4.17,-4.99,-4.99,0,*50
1507086071.69,40227,13.5,73698.5,-4.17,-4.99,-4.99,0,*51
1507086072.89,40228,13.44,73692.5,-4.17,-4.99,-4.99,0,*5E
1507086074.11,40229,13.5,73704.0,-4.15,-4.99,-4.99,0,*5D
1507086075.36,40230,13.5,73700.0,-4.13,-4.93,-4.93,0,*53
1507086076.61,40231,13.5,73702.5,-4.15,-5.07,-4.99,0,*52
1507086077.84,40232,13.5,73726.0,-4.15,-4.99,-4.99,0,*57
1507086079.08,40233,13.5,73724.5,-4.13,-4.93,-4.93,0,*50
1507086080.37,40234,13.5,73712.8,-4.15,-5.07,-5.07,0,*51
1507086081.66,40235,13.5,73716.3,-4.15,-5.07,-5.11,0,*57
1507086082.94,40236,13.5,73710.5,-4.15,-5.11,-5.11,0,*53
1507086084.22,40237,13.5,73716.5,-4.15,-5.11,-5.07,0,*55
1507086085.51,40238,13.5,73722.0,-4.15,-5.07,-5.07,0,*5D
1507086086.79,40239,13.5,73726.0,-4.15,-5.11,-5.07,0,*5B
1507086088.05,40240,13.5,73722.5,-4.17,-5.11,-5.11,0,*50
1507086089.31,40241,13.5,73666.5,-4.17,-5.19,-5.11,0,*59
1507086090.56,40242,13.5,73696.5,-4.17,-5.11,-5.11,0,*52
1507086091.85,40243,13.5,73692.8,-4.19,-5.15,-5.15,0,*5D
1507086093.1,40244,13.5,73680.5,-4.17,-5.19,-5.11,0,*5C
1507086094.39,40245,13.5,73708.0,-4.19,-5.23,-5.23,0,*5B
1507086095.65,40246,13.5,73706.8,-4.17,-5.19,-5.19,0,*56
1507086096.94,40247,13.5,73674.5,-4.19,-5.23,-5.27,0,*5D
1507086098.23,40248,13.5,73670.0,-4.19,-5.23,-5.27,0,*52
1507086099.49,40249,13.5,73688.5,-4.17,-5.19,-5.19,0,*59
1507086100.77,40250,13.5,73684.5,-4.19,-5.11,-5.15,0,*5B
1507086102.06,40251,13.5,73680.8,-4.19,-5.23,-5.23,0,*5E
1507086103.31,40252,13.5,73672.0,-4.17,-5.11,-5.11,0,*53
1507086104.6,40253,13.5,73702.3,-4.19,-5.23,-5.23,0,*5C
1507086105.89,40254,13.5,73702.3,-4.19,-5.23,-5.15,0,*5E
1507086107.15,40255,13.5,73702.8,-4.17,-5.07,-5.11,0,*53
1507086108.44,40256,13.5,73690.5,-4.19,-5.15,-5.23,0,*5C
1507086109.72,40257,13.5,73704.8,-4.19,-5.15,-5.15,0,*58
1507086110.99,40258,13.5,73696.5,-4.17,-5.07,-5.11,0,*5E
1507086112.27,40259,13.5,73686.3,-4.19,-5.15,-5.11,0,*52
1507086113.55,40260,13.5,73686.5,-4.19,-5.11,-5.15,0,*58
1507086114.8,40261,13.5,73692.0,-4.17,-5.11,-5.19,0,*5B
1507086116.09,40262,13.5,73688.0,-4.19,-5.23,-5.15,0,*5B
1507086117.37,40263,13.5,73686.0,-4.19,-5.15,-5.15,0,*5F
1507086118.63,40264,13.5,73692.3,-4.17,-5.19,-5.11,0,*5E
1507086119.92,40265,13.5,73730.5,-4.19,-5.15,-5.15,0,*59
1507086121.2,40266,13.5,73738.3,-4.19,-5.11,-5.15,0,*5E
1507086122.48,40267,13.5,73708.5,-4.19,-5.03,-5.11,0,*58
1507086123.74,40268,13.5,73702.5,-4.21,-5.15,-5.15,0,*5F
1507086124.94,40269,13.5,73692.5,-4.17,-4.99,-4.99,0,*5B
1507086126.17,40270,13.5,73684.3,-4.17,-5.07,-4.99,0,*55
1507086127.45,40271,13.5,73692.3,-4.19,-5.11,-5.11,0,*5C
1507086128.73,40272,13.5,73692.8,-4.19,-5.11,-5.03,0,*5C
1507086130.02,40273,13.5,73700.8,-4.19,-5.03,-5.11,0,*5D
1507086131.3,40274,13.5,73700.0,-4.19,-5.03,-5.03,0,*59
1507086132.59,40275,13.5,73676.3,-4.19,-5.03,-5.03,0,*58
1507086133.88,40276,13.5,73634.8,-4.19,-5.03,-5.03,0,*5B
1507086135.17,40277,13.5,73636.0,-4.19,-5.03,-5.03,0,*5A
1507086136.39,40278,13.5,73712.8,-4.17,-4.93,-4.99,0,*51
1507086137.64,40279,13.5,73724.5,-4.17,-4.93,-4.93,0,*5A
1507086138.86,40280,13.5,73694.3,-4.19,-4.99,-4.99,0,*52
1507086140.08,40281,13.5,73692.5,-4.19,-4.99,-4.99,0,*53
1507086141.3,40282,13.5,73710.5,-4.19,-4.99,-4.99,0,*50
1507086142.55,40283,13.5,73722.0,-4.19,-4.99,-4.93,0,*5B
1507086143.79,40284,13.5,73738.3,-4.19,-4.93,-4.99,0,*5C
1507086145.04,40285,13.5,73730.0,-4.17,-4.93,-4.93,0,*59
1507086146.29,40286,13.5,73738.3,-4.17,-4.89,-4.93,0,*51
1507086147.54,40287,13.5,73704.8,-4.17,-4.93,-4.93,0,*5B
1507086148.78,40288,13.5,73696.8,-4.17,-4.93,-4.93,0,*54
1507086150.04,40289,13.5,73694.3,-4.17,-4.93,-4.89,0,*5E
1507086151.29,40290,13.5,73698.0,-4.17,-4.89,-4.89,0,*5D
1507086152.55,40291,13.5,73688.0,-4.17,-4.81,-4.89,0,*54
1507086153.8,40292,13.5,73668.3,-4.17,-4.81,-4.77,0,*56
1507086155.05,40293,13.5,73662.3,-4.17,-4.81,-4.81,0,*5E
1507086156.3,40294,13.5,73668.0,-4.17,-4.77,-4.77,0,*59
1507086157.54,40295,13.5,73696.5,-4.17,-4.81,-4.77,0,*51
1507086158.82,40296,13.5,73706.8,-4.15,-4.77,-4.81,0,*50
1507086160.09,40297,13.5,73702.0,-4.15,-4.81,-4.81,0,*58
1507086161.37,40298,13.5,73702.8,-4.15,-4.89,-4.81,0,*5F
1507086162.65,40299,13.5,73692.0,-4.15,-4.89,-4.89,0,*56
1507086163.93,40300,13.5,73696.0,-4.15,-4.81,-4.93,0,*54
1507086165.2,40301,13.5,73668.0,-4.15,-4.93,-4.93,0,*56
1507086166.47,40302,13.5,73668.8,-4.15,-4.93,-4.93,0,*55
1507086167.74,40303,13.5,73678.3,-4.15,-4.93,-4.93,0,*54
1507086169.01,40304,13.5,73700.5,-4.15,-4.93,-4.93,0,*53
1507086170.21,40305,13.5,73678.5,-4.17,-4.99,-4.99,0,*50
1507086171.47,40306,13.5,73674.0,-4.17,-5.07,-5.07,0,*53
1507086172.76,40307,13.5,73664.8,-4.15,-5.07,-5.07,0,*50
1507086173.99,40308,13.5,73682.3,-4.15,-4.99,-4.99,0,*5F
1507086175.24,40309,13.5,73698.5,-4.15,-5.07,-4.99,0,*58
1507086176.5,40310,13.5,73710.3,-4.15,-4.99,-5.07,0,*50
1507086177.72,40311,13.5,73694.0,-4.15,-4.99,-4.99,0,*57
1507086178.98,40312,13.5,73680.8,-4.17,-5.07,-5.07,0,*56
1507086180.18,40313,13.5,73672.5,-4.17,-4.99,-4.99,0,*57
1507086181.44,40314,13.5,73662.0,-4.15,-4.99,-5.07,0,*54
1507086182.63,40315,13.5,73696.0,-4.17,-4.99,-4.99,0,*51
1507086183.83,40316,13.5,73692.5,-4.17,-4.99,-4.99,0,*52
1507086185.08,40317,13.5,73652.0,-4.17,-4.93,-4.93,0,*53
1507086186.33,40318,13.5,73666.8,-4.17,-4.93,-4.93,0,*5C
1507086187.57,40319,13.5,73678.3,-4.17,-4.93,-4.93,0,*5D
1507086188.82,40320,13.5,73692.5,-4.17,-4.93,-4.93,0,*57
1507086190.06,40321,13.5,73684.8,-4.17,-4.93,-4.93,0,*56
1507086191.31,40322,13.5,73698.0,-4.17,-4.93,-4.93,0,*55
1507086192.57,40323,13.5,73712.8,-4.17,-4.89,-4.93,0,*5F
1507086193.81,40324,13.5,73712.5,-4.17,-4.93,-4.93,0,*53
1507086195.04,40325,13.5,73708.3,-4.17,-4.99,-4.93,0,*58
1507086196.26,40326,13.5,73698.8,-4.15,-4.99,-4.99,0,*53
1507086197.48,40327,13.5,73696.5,-4.15,-4.99,-4.99,0,*52
1507086198.7,40328,13.5,73682.5,-4.15,-4.99,-4.99,0,*5D
1507086199.9,40329,13.5,73682.5,-4.17,-4.99,-4.99,0,*5E
1507086201.12,40330,13.5,73690.8,-4.17,-4.99,-4.93,0,*5C
1507086202.38,40331,13.5,73686.3,-4.15,-5.07,-4.99,0,*53
1507086203.6,40332,13.5,73690.0,-4.15,-4.99,-4.99,0,*56
1507086204.86,40333,13.5,73724.8,-4.15,-4.99,-5.07,0,*51
1507086206.14,40334,13.5,73688.8,-4.15,-5.07,-5.07,0,*50
1507086207.37,40335,13.5,73702.0,-4.15,-4.99,-4.99,0,*51
1507086208.66,40336,13.5,73700.5,-4.15,-5.07,-5.07,0,*52
1507086209.94,40337,13.5,73702.3,-4.15,-5.19,-5.07,0,*5C
1507086211.2,40338,13.5,73702.8,-4.17,-5.11,-5.11,0,*5E
1507086212.48,40339,13.5,73704.0,-4.19,-5.23,-5.19,0,*58
1507086213.74,40340,13.5,73684.5,-4.17,-5.19,-5.19,0,*51
1507086215.0,40341,13.5,73694.5,-4.17,-5.19,-5.19,0,*50
1507086216.26,40342,13.5,73682.0,-4.17,-5.23,-5.19,0,*5A
1507086217.53,40343,13.5,73658.5,-4.17,-5.19,-5.19,0,*52
1507086218.78,40344,13.5,73664.0,-4.17,-5.11,-5.19,0,*5D
1507086220.04,40345,13.5,73688.8,-4.17,-5.07,-5.11,0,*53
1507086221.32,40346,13.5,73684.3,-4.19,-5.11,-5.15,0,*5D
1507086222.55,40347,13.5,73716.0,-4.17,-4.99,-5.11,0,*57
1507086223.75,40348,13.5,73692.3,-4.17,-4.99,-4.99,0,*59
1507086224.94,40349,13.5,73684.3,-4.17,-4.99,-4.99,0,*58
1507086226.23,40350,13.5,73686.3,-4.19,-5.03,-5.03,0,*5E
1507086227.52,40351,13.5,73686.8,-4.19,-5.03,-5.03,0,*5F
1507086228.81,40352,13.5,73694.8,-4.19,-5.03,-5.03,0,*5C
1507086230.04,40353,13.5,73706.3,-4.17,-5.07,-4.99,0,*55
1507086231.32,40354,13.5,73712.0,-4.19,-5.11,-5.15,0,*5E
1507086232.58,40355,13.5,73694.3,-4.17,-5.11,-5.11,0,*55
1507086233.86,40356,13.5,73714.3,-4.19,-5.27,-5.27,0,*58
1507086235.13,40357,13.5,73680.8,-4.17,-5.23,-5.23,0,*57
1507086236.39,40358,13.5,73690.8,-4.17,-5.23,-5.23,0,*58
1507086237.68,40359,13.5,73692.3,-4.19,-5.15,-5.23,0,*52
1507086238.97,40360,13.5,73690.0,-4.19,-5.15,-5.15,0,*5D
1507086240.25,40361,13.5,73694.8,-4.19,-5.15,-5.15,0,*5C
1507086241.53,40362,13.5,73700.5,-4.19,-5.11,-5.15,0,*5B
1507086242.82,40363,13.5,73704.5,-4.19,-5.03,-5.03,0,*5E
1507086244.1,40364,13.5,73708.0,-4.19,-5.03,-5.03,0,*59
1507086245.39,40365,13.5,73696.0,-4.19,-5.03,-5.03,0,*58
1507086246.65,40366,13.5,73694.0,-4.19,-5.03,-4.99,0,*59
1507086247.89,40367,13.5,73718.5,-4.19,-4.93,-4.99,0,*50
1507086249.11,40368,13.5,73718.8,-4.19,-4.99,-4.99,0,*55
1507086250.37,40369,13.5,73704.5,-4.19,-5.03,-4.99,0,*56
1507086251.62,40370,13.5,73700.0,-4.19,-5.03,-4.99,0,*5E
1507086252.84,40371,13.5,73706.0,-4.17,-4.99,-4.93,0,*59
1507086254.1,40372,13.5,73724.0,-4.19,-5.03,-4.99,0,*5C
1507086255.34,40373,13.5,73692.8,-4.19,-4.93,-4.99,0,*55
1507086256.59,40374,13.5,73706.8,-4.17,-4.93,-4.89,0,*5D
1507086257.81,40375,13.5,73682.0,-4.19,-4.99,-4.99,0,*59
1507086259.07,40376,13.5,73690.8,-4.17,-4.89,-4.93,0,*5F
1507086260.34,40377,13.5,73716.8,-4.19,-4.93,-4.93,0,*5B
1507086261.6,40378,13.5,73724.0,-4.17,-4.89,-4.89,0,*5A
1507086262.86,40379,13.5,73738.5,-4.19,-4.93,-4.93,0,*55
1507086264.12,40380,13.5,73738.5,-4.17,-4.81,-4.89,0,*55
1507086265.37,40381,13.5,73688.5,-4.17,-4.77,-4.81,0,*55
1507086266.62,40382,13.5,73680.0,-4.17,-4.81,-4.81,0,*5F
1507086267.87,40383,13.5,73688.5,-4.17,-4.77,-4.77,0,*5E
1507086269.12,40384,13.5,73704.8,-4.17,-4.77,-4.69,0,*56
1507086270.37,40385,13.5,73698.0,-4.17,-4.77,-4.69,0,*57
1507086271.62,40386,13.5,73706.5,-4.17,-4.69,-4.69,0,*5B
1507086272.87,40387,13.5,73682.3,-4.17,-4.69,-4.81,0,*5C
1507086274.11,40388,13.5,73694.0,-4.13,-4.77,-4.77,0,*51
1507086275.39,40389,13.5,73692.8,-4.15,-4.89,-4.89,0,*56
1507086276.67,40390,13.5,73696.8,-4.15,-4.93,-4.89,0,*55
1507086277.94,40391,13.5,73704.8,-4.15,-4.93,-4.93,0,*5F
1507086279.21,40392,13.5,73698.5,-4.15,-4.93,-4.93,0,*5C
1507086280.46,40393,13.5,73706.0,-4.13,-4.85,-4.85,0,*5B
1507086281.74,40394,13.5,73708.8,-4.15,-4.89,-4.89,0,*5A
1507086283.0,40395,13.5,73712.5,-4.17,-4.81,-4.81,0,*59
1507086284.27,40396,13.5,73716.0,-4.15,-4.77,-4.77,0,*58
1507086285.51,40397,13.44,73698.8,-4.13,-4.77,-4.73,0,*5B
1507086286.79,40398,13.5,73694.3,-4.15,-4.77,-4.69,0,*59
1507086288.02,40399,13.5,73724.0,-4.13,-4.73,-4.65,0,*56
1507086289.27,40400,13.5,73708.8,-4.13,-4.73,-4.73,0,*56
1507086290.52,40401,13.5,73712.8,-4.13,-4.73,-4.73,0,*57
1507086291.77,40402,13.5,73714.3,-4.13,-4.73,-4.73,0,*54
1507086293.02,40403,13.5,73712.8,-4.13,-4.73,-4.77,0,*51
1507086294.27,40404,13.5,73710.5,-4.13,-4.73,-4.73,0,*52
1507086295.52,40405,13.5,73712.8,-4.13,-4.73,-4.77,0,*57
1507086296.77,40406,13.5,73716.3,-4.13,-4.77,-4.73,0,*54
1507086298.02,40407,13.5,73714.5,-4.13,-4.73,-4.77,0,*55
1507086299.27,40408,13.5,73728.8,-4.13,-4.77,-4.77,0,*5E
1507086300.52,40409,13.5,73716.8,-4.13,-4.73,-4.73,0,*5F
1507086301.76,40410,13.5,73718.8,-4.13,-4.77,-4.77,0,*57
1507086303.01,40411,13.5,73730.0,-4.13,-4.77,-4.77,0,*56
1507086304.26,40412,13.5,73646.0,-4.13,-4.77,-4.77,0,*55
1507086305.5,40413,13.5,73716.3,-4.13,-4.77,-4.77,0,*54
1507086306.77,40414,13.5,73728.5,-4.11,-4.85,-4.77,0,*5C
1507086308.04,40415,13.5,73730.0,-4.11,-4.85,-4.89,0,*5C
1507086309.29,40416,13.5,73720.5,-4.09,-4.85,-4.85,0,*5A
1507086310.56,40417,13.5,73724.0,-4.11,-4.85,-4.85,0,*52
1507086311.83,40418,13.5,73722.8,-4.11,-4.89,-4.77,0,*5C
1507086313.1,40419,13.5,73692.8,-4.11,-4.85,-4.85,0,*5C
1507086314.37,40420,13.5,73696.0,-4.11,-4.85,-4.85,0,*56
1507086315.64,40421,13.5,73720.8,-4.11,-4.85,-4.77,0,*5A
1507086316.91,40422,13.44,73712.8,-4.11,-4.85,-4.77,0,*59
1507086318.18,40423,13.5,73708.0,-4.11,-4.85,-4.85,0,*55
1507086319.45,40424,13.44,73730.5,-4.11,-4.85,-4.85,0,*52
1507086320.72,40425,13.5,73750.5,-4.11,-4.89,-4.89,0,*53
1507086322.0,40426,13.5,73746.0,-4.11,-4.89,-4.89,0,*50
1507086323.28,40427,13.5,73730.8,-4.11,-4.89,-4.89,0,*51
1507086324.55,40428,13.5,73736.5,-4.11,-4.89,-4.89,0,*5E
1507086325.82,40429,13.5,73732.0,-4.11,-4.93,-4.89,0,*54
1507086327.09,40430,13.5,73730.0,-4.11,-4.93,-4.93,0,*57
1507086328.37,40431,13.5,73736.0,-4.11,-4.93,-5.03,0,*5E
1507086329.61,40432,13.5,73740.0,-4.13,-4.93,-4.93,0,*57
1507086330.87,40433,13.5,73738.8,-4.13,-5.03,-4.93,0,*5E
1507086332.13,40434,13.5,73736.8,-4.13,-4.93,-5.03,0,*59
1507086333.39,40435,13.5,73738.0,-4.13,-5.03,-5.03,0,*50
1507086334.66,40436,13.5,73742.0,-4.13,-5.03,-5.03,0,*53
1507086335.94,40437,13.5,73736.5,-4.11,-5.15,-5.15,0,*50
1507086337.22,40438,13.5,73742.8,-4.11,-5.15,-5.15,0,*5F
1507086338.5,40439,13.5,73750.0,-4.15,-5.31,-5.19,0,*50
1507086339.79,40440,13.5,73746.3,-4.15,-5.15,-5.19,0,*58
1507086341.08,40441,13.5,73734.5,-4.15,-5.23,-5.31,0,*56
1507086342.34,40442,13.44,73754.8,-4.13,-5.07,-5.19,0,*5F
1507086343.63,40443,13.5,73740.0,-4.15,-5.07,-5.11,0,*50
1507086344.88,40444,13.5,73692.5,-4.15,-4.99,-5.07,0,*56
1507086346.15,40445,13.5,73682.0,-4.13,-5.03,-5.03,0,*57
1507086347.37,40446,13.5,73708.3,-4.15,-4.99,-4.99,0,*52
1507086348.61,40447,13.5,73720.5,-4.15,-4.93,-4.99,0,*59
1507086349.83,40448,13.5,73722.0,-4.15,-4.99,-4.99,0,*5C
1507086351.09,40449,13.5,73734.0,-4.13,-4.93,-5.03,0,*53
1507086352.35,40450,13.44,73720.3,-4.13,-5.03,-4.93,0,*5B
1507086353.57,40451,13.5,73718.3,-4.15,-4.99,-4.99,0,*54
1507086354.86,40452,13.5,73718.8,-4.15,-5.07,-5.07,0,*57
1507086356.13,40453,13.5,73722.5,-4.15,-4.93,-4.93,0,*56
1507086357.35,40454,13.44,73716.3,-4.15,-4.99,-4.99,0,*51
1507086358.57,40455,13.5,73732.5,-4.15,-4.99,-4.99,0,*50
1507086359.82,40456,13.5,73728.8,-4.13,-4.93,-5.03,0,*5D
1507086361.11,40457,13.5,73728.8,-4.15,-5.07,-5.07,0,*52
1507086362.31,40458,13.5,73722.8,-4.13,-4.99,-4.99,0,*5B
1507086363.53,40459,13.5,73722.3,-4.15,-4.99,-4.99,0,*5C
1507086364.79,40460,13.5,73720.8,-4.15,-5.07,-4.99,0,*50
1507086366.01,40461,13.44,73716.3,-4.15,-4.99,-4.99,0,*57
1507086367.23,40462,13.5,73708.8,-4.15,-4.99,-4.99,0,*54
1507086368.45,40463,13.5,73720.8,-4.15,-4.99,-4.99,0,*55
1507086369.71,40464,13.5,73718.0,-4.13,-4.93,-5.03,0,*5C
1507086370.93,40465,13.5,73724.3,-4.15,-4.99,-4.99,0,*53
1507086372.15,40466,13.5,73720.8,-4.15,-4.99,-4.99,0,*50
1507086373.37,40467,13.44,73720.3,-4.15,-4.99,-4.99,0,*51
1507086374.63,40468,13.5,73730.3,-4.15,-5.07,-4.99,0,*58
1507086375.87,40469,13.5,73736.5,-4.13,-4.93,-4.93,0,*59
1507086377.1,40470,13.5,73726.0,-4.15,-4.99,-4.99,0,*57
1507086378.35,40471,13.5,73724.5,-4.15,-5.07,-4.99,0,*50
1507086379.57,40472,13.5,73738.8,-4.15,-4.99,-4.99,0,*55
1507086380.79,40473,13.5,73746.8,-4.15,-4.99,-4.99,0,*54
1507086382.02,40474,13.5,73732.3,-4.15,-4.99,-4.99,0,*53
1507086383.26,40475,13.5,73708.0,-4.15,-4.93,-4.99,0,*58
1507086384.48,40476,13.5,73704.3,-4.13,-4.93,-4.99,0,*5D
1507086385.72,40477,13.44,73706.0,-4.15,-4.93,-4.99,0,*5A
1507086386.99,40478,13.5,73702.3,-4.15,-4.93,-4.93,0,*5F
1507086388.25,40479,13.5,73716.3,-4.13,-4.89,-4.89,0,*58
1507086389.52,40480,13.5,73716.5,-4.15,-4.93,-4.93,0,*58
1507086390.78,40481,13.5,73716.3,-4.13,-4.89,-4.89,0,*5F
1507086392.04,40482,13.5,73724.0,-4.13,-4.89,-4.89,0,*5C
1507086393.31,40483,13.5,73734.0,-4.15,-4.93,-4.93,0,*5B
1507086394.57,40484,13.5,73706.8,-4.13,-4.89,-4.89,0,*5A
1507086395.82,40485,13.5,73740.0,-4.13,-4.85,-4.85,0,*5B
1507086397.08,40486,13.5,73758.3,-4.13,-4.89,-4.89,0,*58
1507086398.35,40487,13.5,73750.3,-4.15,-4.93,-4.89,0,*54
1507086399.62,40488,13.5,73732.5,-4.15,-4.93,-4.93,0,*50
1507086400.89,40489,13.5,73744.3,-4.15,-4.93,-4.93,0,*51
1507086402.16,40490,13.44,73756.5,-4.15,-4.93,-4.93,0,*59
1507086403.43,40491,13.44,73732.0,-4.15,-4.93,-4.93,0,*58
1507086404.66,40492,13.5,73752.5,-4.15,-4.99,-4.99,0,*5B
1507086405.88,40493,13.5,73732.5,-4.15,-4.99,-4.99,0,*5A
1507086407.14,40494,13.44,73712.0,-4.13,-5.03,-5.03,0,*5B
1507086408.41,40495,13.5,73706.5,-4.13,-5.03,-5.07,0,*5E
1507086409.67,40496,13.5,73728.3,-4.13,-5.03,-5.07,0,*5D
1507086410.96,40497,13.5,73738.8,-4.15,-5.07,-5.07,0,*5E
1507086412.23,40498,13.5,73742.3,-4.13,-5.07,-5.07,0,*57
1507086413.51,40499,13.5,73736.8,-4.15,-5.19,-5.19,0,*50
1507086414.8,40500,13.5,73732.0,-4.15,-5.19,-5.23,0,*58
1507086416.08,40501,13.5,73726.8,-4.15,-5.19,-5.19,0,*50
1507086417.37,40502,13.5,73726.3,-4.15,-5.19,-5.19,0,*53
1507086418.65,40503,13.5,73724.3,-4.15,-5.11,-5.23,0,*53
1507086419.91,40504,13.5,73728.3,-4.17,-5.11,-5.19,0,*5F
1507086421.16,40505,13.5,73714.3,-4.17,-5.19,-5.11,0,*5E
1507086422.42,40506,13.44,73718.0,-4.17,-5.11,-5.19,0,*5D
1507086423.68,40507,13.5,73724.8,-4.17,-5.11,-5.11,0,*54
1507086424.94,40508,13.5,73720.3,-4.17,-5.07,-5.11,0,*5C
1507086426.17,40509,13.5,73728.8,-4.17,-4.99,-5.07,0,*5C
1507086427.4,40510,13.5,73730.8,-4.17,-4.99,-5.07,0,*54
1507086428.62,40511,13.44,73722.3,-4.15,-4.99,-4.99,0,*51
1507086429.82,40512,13.5,73700.8,-4.17,-4.99,-4.99,0,*50
1507086431.11,40513,13.44,73682.5,-4.19,-5.03,-5.03,0,*5F
1507086432.31,40514,13.5,73680.3,-4.17,-4.99,-4.99,0,*56
1507086433.5,40515,13.5,73702.3,-4.17,-4.99,-4.99,0,*57
1507086434.73,40516,13.44,73766.0,-4.17,-4.99,-4.93,0,*5E
1507086435.97,40517,13.5,73774.5,-4.17,-4.93,-4.93,0,*55
1507086437.2,40518,13.5,73760.3,-4.19,-4.99,-4.99,0,*54
1507086438.42,40519,13.5,73762.0,-4.17,-4.99,-4.93,0,*51
1507086439.64,40520,13.5,73758.5,-4.17,-4.99,-4.93,0,*5B
1507086440.84,40521,13.5,73750.0,-4.17,-4.99,-4.99,0,*50
1507086442.13,40522,13.5,73754.3,-4.19,-5.03,-5.03,0,*5D
1507086443.33,40523,13.5,73750.3,-4.17,-4.99,-4.99,0,*52
1507086444.56,40524,13.5,73750.0,-4.17,-4.99,-5.07,0,*53
1507086445.79,40525,13.5,73750.0,-4.17,-5.07,-4.99,0,*52
1507086446.99,40526,13.5,73750.8,-4.17,-4.99,-4.99,0,*57
1507086448.28,40527,13.5,73748.5,-4.15,-5.07,-5.07,0,*54
1507086449.56,40528,13.5,73744.5,-4.19,-5.11,-5.11,0,*57
1507086450.79,40529,13.5,73746.8,-4.17,-5.07,-4.99,0,*5E
1507086452.08,40530,13.5,73746.8,-4.15,-5.07,-5.07,0,*52
1507086453.33,40531,13.5,73752.5,-4.15,-5.07,-4.99,0,*55
1507086454.56,40532,13.5,73722.5,-4.17,-4.99,-5.11,0,*53
1507086455.84,40533,13.44,73746.3,-4.19,-5.03,-5.11,0,*5E
1507086457.08,40534,13.5,73736.5,-4.17,-5.07,-4.99,0,*52
1507086458.35,40535,13.5,73726.0,-4.19,-5.11,-5.11,0,*5B
1507086459.59,40536,13.44,73734.3,-4.17,-4.99,-5.07,0,*50
1507086460.85,40537,13.5,73730.0,-4.17,-5.07,-5.07,0,*57
1507086462.14,40538,13.5,73746.8,-4.15,-5.07,-5.07,0,*5A
1507086463.41,40539,13.5,73740.3,-4.17,-5.07,-5.07,0,*59
1507086464.63,40540,13.5,73748.8,-4.17,-5.11,-4.99,0,*56
1507086465.91,40541,13.5,73748.0,-4.19,-5.11,-5.11,0,*58
1507086467.18,40542,13.5,73744.0,-4.17,-5.07,-5.07,0,*55
1507086468.45,40543,13.5,73750.0,-4.19,-5.11,-5.11,0,*5A
1507086469.72,40544,13.5,73752.8,-4.17,-5.07,-5.11,0,*54
1507086470.99,40545,13.5,73754.5,-4.19,-5.11,-5.11,0,*5C
1507086472.25,40546,13.44,73752.5,-4.17,-5.15,-5.11,0,*55
1507086473.54,40547,13.44,73768.3,-4.19,-5.15,-5.15,0,*5E
1507086474.83,40548,13.5,73762.8,-4.19,-5.15,-5.23,0,*54
1507086476.09,40549,13.5,73760.5,-4.17,-5.11,-5.23,0,*5F
1507086477.35,40550,13.44,73758.5,-4.17,-5.11,-5.07,0,*51
1507086478.63,40551,13.5,73754.8,-4.19,-5.15,-5.15,0,*59
1507086479.89,40552,13.5,73766.5,-4.21,-5.19,-5.19,0,*51
1507086481.18,40553,13.5,73762.3,-4.19,-5.03,-5.11,0,*58
1507086482.45,40554,13.5,73758.8,-4.19,-5.11,-5.11,0,*5C
1507086483.73,40555,13.5,73750.0,-4.19,-5.11,-5.11,0,*5D
1507086485.02,40556,13.5,73756.3,-4.19,-5.03,-5.11,0,*5D
1507086486.31,40557,13.5,73750.8,-4.19,-5.03,-5.03,0,*5F
1507086487.54,40558,13.5,73756.0,-4.17,-5.03,-4.99,0,*5C
1507086488.82,40559,13.5,73754.0,-4.19,-5.03,-5.03,0,*51
1507086490.08,40560,13.5,73742.0,-4.19,-5.03,-4.99,0,*59
1507086491.3,40561,13.5,73736.5,-4.19,-4.99,-4.99,0,*5A
1507086492.54,40562,13.5,73742.0,-4.19,-4.93,-4.99,0,*53
1507086493.74,40563,13.44,73732.3,-4.17,-4.99,-4.99,0,*56
1507086494.99,40564,13.5,73740.3,-4.17,-4.93,-4.93,0,*51
1507086496.21,40565,13.5,73744.8,-4.19,-4.99,-4.99,0,*5E
1507086497.46,40566,13.5,73748.3,-4.17,-4.93,-4.93,0,*53
1507086498.68,40567,13.5,73750.0,-4.19,-4.99,-4.99,0,*5C
1507086499.92,40568,13.5,73742.8,-4.17,-4.93,-4.93,0,*5D
1507086501.17,40569,13.5,73742.5,-4.17,-4.93,-4.89,0,*57
1507086502.42,40570,13.5,73728.5,-4.17,-4.93,-4.93,0,*54
1507086503.69,40571,13.5,73746.3,-4.19,-4.93,-4.93,0,*5B
1507086504.95,40572,13.5,73730.3,-4.17,-4.89,-4.89,0,*56
1507086506.2,40573,13.5,73750.0,-4.17,-4.93,-4.93,0,*57
1507086507.43,40574,13.5,73748.0,-4.17,-4.99,-5.07,0,*56
1507086508.63,40575,13.5,73750.8,-4.17,-4.99,-4.99,0,*51
1507086509.91,40576,13.5,73762.0,-4.19,-5.03,-5.11,0,*5F
1507086511.2,40577,13.5,73768.3,-4.19,-5.03,-5.03,0,*5D
1507086512.4,40578,13.5,73774.3,-4.17,-4.99,-4.99,0,*5C
1507086513.59,40579,13.5,73778.5,-4.17,-4.99,-4.99,0,*5D
1507086514.79,40580,13.5,73766.3,-4.17,-4.99,-4.99,0,*5B
1507086515.99,40581,13.5,73758.5,-4.17,-4.99,-4.99,0,*5A
1507086517.19,40582,13.5,73766.5,-4.17,-4.99,-4.99,0,*59
1507086518.41,40583,13.5,73738.3,-4.17,-4.99,-4.93,0,*52
1507086519.63,40584,13.5,73724.0,-4.17,-4.99,-4.93,0,*55
1507086520.88,40585,13.5,73734.0,-4.17,-4.93,-4.93,0,*5E
1507086522.13,40586,13.5,73746.0,-4.17,-4.93,-4.93,0,*5D
1507086523.38,40587,13.5,73732.3,-4.17,-4.93,-4.93,0,*5C
1507086524.63,40588,13.5,73742.3,-4.17,-4.89,-4.93,0,*58
1507086525.89,40589,13.5,73760.0,-4.17,-4.89,-4.89,0,*52
1507086527.13,40590,13.5,73756.8,-4.17,-4.93,-4.93,0,*5A